Location: Newark
(49.8348°N, 24.0280°E)
Time: 11:36:58
(UTC+00:00)

Explorer 7 - Pass Details

Date: 21 January 2020
Orbit: 485 x 679 km, 50.3° (Epoch: 23 February)

Event Time Altitude Azimuth Distance (km) Brightness Sun altitude
Rises 01:34:42 0° 271° (W) 2,558 - -43.7°
Reaches altitude 10° 01:36:51 10° 272° (W) 1,688 - -43.4°
Maximum altitude 01:40:39 82° 2° (N) 516 - -42.8°
Drops below altitude 10° 01:44:38 10° 89° (E) 1,763 - -42.2°
Exits shadow 01:46:17 - 90° (E) 2,424 10.8 -42.0°
Sets 01:46:55 0° 90° (E) 2,683 11.1 -41.9°
